Regional Weather Roundup
Issued by NWS

Home | Current Version | Previous Version | Graphics & Text | Print | Product List | Glossary On
Versions: 1 2 3 4 5 6 7 8 9 10 11 12 13 14 15 16 17 18 19 20 21 22 23 24 25 26 27 28 29 30 31 32 33 34 35 36 37 38 39 40 41 42 43 44 45 46 47 48 49 50
328
ASUS44 KLIX 271901
RWRLA
LOUISIANA WEATHER ROUNDUP
NATIONAL WEATHER SERVICE NEW ORLEANS LA
200 PM CDT WED AUG 27 2014

NOTE: "FAIR" INDICATES FEW OR NO CLOUDS BELOW 12,000 FEET WITH NO
      SIGNIFICANT WEATHER AND/OR OBSTRUCTIONS TO VISIBILITY.
      SKY/WX - SKY CONDITION AND SIGNIFICANT WEATHER.
      TMP - AIR TEMPERATURE.    DP   - DEWPOINT TEMPERATURE.
      RH  - RELATIVE HUMIDITY.  PRES - PRESSURE.
      HX  - HEAT INDEX.         WCI  - WIND CHILL INDEX.

*  THESE STATIONS ARE NOT NWS OR FAA STATIONS AND ARE NOT UNDER
   NWS QUALITY CONTROL.

LAZ040-048-061>063-065-066-069-272000-
SOUTHEAST LOUISIANA

CITY           SKY/WX    TMP DP  RH WIND       PRES   REMARKS
N.O. AUDUBON     N/A     87  75  68 MISG        N/A  HX  96
N.O. INTL ARPT PTSUNNY   89  73  59 E12       30.00F HX  97
N.O. LAKEFRONT CLOUDY    86  75  69 E13       30.01F HX  95
N.O. DOWNTOWN* MOCLDY    88  72  58 SE7       30.02F
SLIDELL        PTSUNNY   89  71  55 E6        30.00F HX  95
BATON ROUGE    PTSUNNY   92  73  53 NE8       30.01F HX 100
BOOTHVILLE     MOSUNNY   89  77  67 NE13G18   30.00F HX 101
BELLE CHASSE   PTSUNNY   79  71  76 E13G21    30.01F
BOGALUSA*      FAIR      95  67  39 SE5       30.02F HX  98
GALLIANO*      NOT AVBL
NEW ROADS*     MOCLDY    90  71  54 NE7       30.01F HX  96
GONZALES*      FAIR      91  73  57 E5        30.00S HX  99
HAMMOND*       NOT AVBL
HOUMA*         SHOWER    75  72  88 NE10      30.02R
PORT FOURCHON* CLEAR     88  77  70 E13G22    30.01F HX 100

$$

LAZ041-044-053-054-272000-
SOUTHWEST LOUISIANA

CITY           SKY/WX    TMP DP  RH WIND       PRES   REMARKS
LAKE CHARLES   PTSUNNY   88  75  65 E8        29.99F HX  97
LAFAYETTE      PTSUNNY   90  75  61 VRB3      30.00F HX 100
PATTERSON      PTSUNNY   88  73  62 E3        30.02F HX  96
SALT POINT       N/A     91  75  59 SE7       29.98F HX 101
NEW IBERIA     CLOUDY    89  74  60 E8        30.00F HX  98
CHENAULT AIRPK   N/A     90  72  55 E7        30.01F HX  96

$$

LAZ027-028-272000-
CENTRAL LOUISIANA

CITY           SKY/WX    TMP DP  RH WIND       PRES   REMARKS
FORT POLK      PTSUNNY   90  69  50 E9        30.01F
ALEXANDRIA INT MOSUNNY   90  69  50 E7        30.00F
ALEXANDRIA     SUNNY     94  71  47 VRB3      30.02F HX 101

$$

LAZ001-002-272000-
NORTHWEST LOUISIANA

CITY           SKY/WX    TMP DP  RH WIND       PRES   REMARKS
SHREVEPORT     MOSUNNY   92  62  36 SE8       30.03F
BARKSDALE AFB  SUNNY     91  62  37 E7        30.03F
DTN SHREVEPORT SUNNY     91  64  40 S8        30.03F

$$

LAZ014-016-272000-
NORTHEAST LOUISIANA

CITY           SKY/WX    TMP DP  RH WIND       PRES   REMARKS
MONROE         PTSUNNY   93  66  40 VRB3      30.04F HX  96
TALLULAH       SUNNY     93  66  40 VRB7      30.03F HX  96

$$




USA.gov is the U.S. government's official web portal to all federal, state and local government web resources and services.